| time (UTC) | temp F | wind direction | speed MPH | gust MPH | rain 1hr in | rain 24hr in | rain mn in | humidity % | barometer mb |
| 20260902064507 | 82 | 80 | 3.0 | 5.0 | 0.00 | 0.00 | 0.00 | 72 | 1018.0 |
| 20260902063015 | 83 | 84 | 4.0 | 7.0 | 0.00 | 0.00 | 0.00 | 71 | 1017.9 |
| 20260902061516 | 83 | 67 | 1.0 | 2.0 | 0.00 | 0.00 | 0.00 | 70 | 1017.9 |
| 20260902060014 | 82 | 188 | 0.0 | 0.0 | 0.00 | 0.00 | 0.00 | 72 | 1017.9 |
| 20260902054510 | 81 | 197 | 0.0 | 2.0 | 0.00 | 0.00 | 0.00 | 72 | 1017.8 |
| 20260902053010 | 80 | 202 | 0.0 | 2.0 | 0.00 | 0.00 | 0.00 | 73 | 1017.9 |
| 20260902051512 | 79 | 195 | 1.0 | 4.0 | 0.00 | 0.00 | 0.00 | 75 | 1017.8 |
| 20260902050023 | 78 | 194 | 2.0 | 5.0 | 0.00 | 0.00 | 0.00 | 76 | 1017.5 |
| 20260902044510 | 77 | 180 | 3.0 | 6.0 | 0.00 | 0.00 | 0.00 | 76 | 1017.7 |
| 20260902043008 | 78 | 175 | 1.0 | 4.0 | 0.00 | 0.00 | 0.00 | 77 | 1017.7 |
| 20260902041514 | 77 | 360 | 3.0 | 6.0 | 0.00 | 0.00 | 0.00 | 79 | 1017.5 |
| 20260902040024 | 77 | 188 | 2.0 | 8.0 | 0.00 | 0.00 | 0.00 | 79 | 1017.5 |
| 20260902034529 | 78 | 360 | 3.0 | 6.0 | 0.00 | 0.00 | 0.00 | 77 | 1017.5 |
| 20260902033008 | 78 | 193 | 2.0 | 8.0 | 0.00 | 0.00 | 0.00 | 78 | 1017.5 |
| 20260902031514 | 77 | 164 | 3.0 | 6.0 | 0.00 | 0.00 | 0.00 | 78 | 1017.6 |
| 20260902030019 | 77 | 360 | 3.0 | 6.0 | 0.00 | 0.00 | 0.00 | 78 | 1017.7 |
| 20260902024523 | 78 | 184 | 3.0 | 6.0 | 0.00 | 0.00 | 0.00 | 77 | 1017.8 |
| 20260902023029 | 78 | 202 | 3.0 | 8.0 | 0.00 | 0.00 | 0.00 | 78 | 1017.9 |
| 20260902021512 | 79 | 192 | 0.0 | 3.0 | 0.00 | 0.00 | 0.00 | 77 | 1018.0 |
| 20260902020020 | 79 | 187 | 3.0 | 8.0 | 0.00 | 0.00 | 0.00 | 77 | 1018.0 |
| 20260902014534 | 79 | 212 | 3.0 | 7.0 | 0.00 | 0.00 | 0.00 | 77 | 1018.0 |
| 20260902013029 | 79 | 190 | 0.0 | 5.0 | 0.00 | 0.00 | 0.00 | 77 | 1018.0 |
| 20260902011538 | 79 | 188 | 1.0 | 5.0 | 0.00 | 0.00 | 0.00 | 76 | 1018.2 |
| 20260902010013 | 79 | 196 | 2.0 | 6.0 | 0.00 | 0.00 | 0.00 | 77 | 1018.2 |
| 20260902004526 | 79 | 209 | 2.0 | 4.0 | 0.00 | 0.00 | 0.00 | 77 | 1018.1 |
| 20260902003029 | 78 | 195 | 0.0 | 7.0 | 0.00 | 0.00 | 0.00 | 76 | 1018.4 |
| 20260902001504 | 78 | 190 | 4.0 | 6.0 | 0.00 | 0.00 | 0.00 | 75 | 1018.3 |
| 20260902000012 | 78 | 178 | 3.0 | 6.0 | 0.00 | 0.00 | 0.00 | 75 | 1018.4 |
| 20260901234538 | 78 | 194 | 2.0 | 7.0 | 0.00 | 0.00 | 0.00 | 75 | 1018.4 |
| 20260901233003 | 78 | 179 | 3.0 | 7.0 | 0.00 | 0.00 | 0.00 | 74 | 1018.3 |
| 20260901231510 | 78 | 165 | 1.0 | 6.0 | 0.00 | 0.00 | 0.00 | 74 | 1018.3 |
| 20260901230008 | 78 | 161 | 2.0 | 8.0 | 0.00 | 0.00 | 0.00 | 75 | 1018.3 |
| 20260901224514 | 79 | 175 | 3.0 | 5.0 | 0.00 | 0.00 | 0.00 | 76 | 1018.3 |
| 20260901223034 | 79 | 191 | 4.0 | 8.0 | 0.00 | 0.00 | 0.00 | 77 | 1018.1 |
| 20260901221511 | 79 | 148 | 3.0 | 5.0 | 0.00 | 0.00 | 0.00 | 76 | 1018.1 |
| 20260901220007 | 79 | 183 | 1.0 | 7.0 | 0.00 | 0.00 | 0.00 | 76 | 1018.1 |
| 20260901214510 | 80 | 181 | 2.0 | 4.0 | 0.00 | 0.00 | 0.00 | 76 | 1018.2 |
| 20260901213018 | 80 | 196 | 2.0 | 6.0 | 0.00 | 0.00 | 0.00 | 76 | 1018.1 |
| 20260901211533 | 79 | 193 | 3.0 | 5.0 | 0.00 | 0.00 | 0.00 | 76 | 1018.2 |
| 20260901210004 | 79 | 184 | 1.0 | 8.0 | 0.00 | 0.00 | 0.00 | 77 | 1018.2 |
| 20260901204514 | 79 | 190 | 4.0 | 6.0 | 0.00 | 0.00 | 0.00 | 77 | 1018.1 |
| 20260901203022 | 79 | 180 | 4.0 | 7.0 | 0.00 | 0.00 | 0.00 | 76 | 1018.1 |
| 20260901201522 | 79 | 203 | 1.0 | 5.0 | 0.00 | 0.00 | 0.00 | 76 | 1018.1 |
| 20260901200036 | 80 | 192 | 2.0 | 5.0 | 0.00 | 0.00 | 0.00 | 75 | 1018.2 |
| 20260901194507 | 80 | 170 | 1.0 | 5.0 | 0.00 | 0.00 | 0.00 | 74 | 1018.1 |
| 20260901193014 | 80 | 175 | 2.0 | 4.0 | 0.00 | 0.00 | 0.00 | 74 | 1017.9 |
| 20260901191525 | 80 | 180 | 3.0 | 6.0 | 0.00 | 0.00 | 0.00 | 73 | 1017.7 |
| 20260901190029 | 80 | 169 | 2.0 | 6.0 | 0.00 | 0.00 | 0.00 | 73 | 1017.7 |
| 20260901184527 | 81 | 196 | 0.0 | 5.0 | 0.00 | 0.00 | 0.00 | 71 | 1017.5 |
| 20260901183032 | 81 | 205 | 2.0 | 5.0 | 0.00 | 0.00 | 0.00 | 70 | 1017.4 |
| 20260901181516 | 82 | 192 | 2.0 | 5.0 | 0.00 | 0.00 | 0.00 | 69 | 1017.4 |
| 20260901180025 | 82 | 190 | 0.0 | 2.0 | 0.00 | 0.00 | 0.00 | 69 | 1017.3 |
| 20260901174529 | 82 | 190 | 0.0 | 0.0 | 0.00 | 0.00 | 0.00 | 69 | 1017.1 |
| 20260901173030 | 83 | 80 | 0.0 | 0.0 | 0.00 | 0.00 | 0.00 | 69 | 1017.1 |
| 20260901171510 | 83 | 84 | 0.0 | 4.0 | 0.00 | 0.00 | 0.00 | 68 | 1017.1 |
| 20260901170016 | 83 | 74 | 1.0 | 6.0 | 0.00 | 0.00 | 0.00 | 68 | 1017.1 |
| 20260901164522 | 84 | 72 | 2.0 | 4.0 | 0.00 | 0.00 | 0.00 | 67 | 1017.1 |
| 20260901163004 | 84 | 75 | 2.0 | 6.0 | 0.00 | 0.00 | 0.00 | 66 | 1017.2 |
| 20260901161504 | 84 | 74 | 3.0 | 6.0 | 0.00 | 0.00 | 0.00 | 65 | 1017.2 |
| 20260901160014 | 85 | 90 | 3.0 | 6.0 | 0.00 | 0.00 | 0.00 | 65 | 1017.1 |
| 20260901154519 | 85 | 74 | 3.0 | 7.0 | 0.00 | 0.00 | 0.00 | 63 | 1017.1 |
| 20260901153036 | 85 | 41 | 3.0 | 6.0 | 0.00 | 0.00 | 0.00 | 60 | 1017.2 |
| 20260901151507 | 85 | 62 | 3.0 | 7.0 | 0.00 | 0.00 | 0.00 | 60 | 1017.0 |
| 20260901150007 | 85 | 98 | 4.0 | 8.0 | 0.00 | 0.00 | 0.00 | 60 | 1016.9 |
| 20260901144527 | 85 | 100 | 4.0 | 8.0 | 0.00 | 0.00 | 0.00 | 60 | 1016.8 |
| 20260901143024 | 85 | 65 | 4.0 | 8.0 | 0.00 | 0.00 | 0.00 | 58 | 1016.8 |
| 20260901141528 | 86 | 81 | 4.0 | 8.0 | 0.00 | 0.00 | 0.00 | 59 | 1016.7 |
| 20260901140009 | 86 | 66 | 3.0 | 7.0 | 0.00 | 0.00 | 0.00 | 58 | 1016.8 |
| 20260901134514 | 85 | 84 | 2.0 | 8.0 | 0.00 | 0.00 | 0.00 | 59 | 1017.0 |
| 20260901133034 | 85 | 64 | 2.0 | 8.0 | 0.00 | 0.00 | 0.00 | 60 | 1017.0 |
| 20260901131533 | 85 | 323 | 4.0 | 10.0 | 0.00 | 0.00 | 0.00 | 60 | 1017.0 |
| 20260901130031 | 85 | 73 | 3.0 | 8.0 | 0.00 | 0.00 | 0.00 | 61 | 1017.1 |
| 20260901124510 | 85 | 76 | 4.0 | 8.0 | 0.00 | 0.00 | 0.00 | 61 | 1017.1 |
| 20260901123016 | 85 | 108 | 5.0 | 9.0 | 0.00 | 0.00 | 0.00 | 61 | 1017.3 |
| 20260901121523 | 85 | 121 | 6.0 | 10.0 | 0.00 | 0.00 | 0.00 | 60 | 1017.6 |
| 20260901120029 | 85 | 82 | 3.0 | 8.0 | 0.00 | 0.00 | 0.00 | 61 | 1017.5 |
| 20260901114532 | 85 | 5 | 3.0 | 9.0 | 0.00 | 0.00 | 0.00 | 62 | 1017.6 |
| 20260901113014 | 85 | 55 | 3.0 | 8.0 | 0.00 | 0.00 | 0.00 | 62 | 1017.6 |
| 20260901111520 | 85 | 82 | 4.0 | 8.0 | 0.00 | 0.00 | 0.00 | 63 | 1017.6 |
| 20260901110037 | 84 | 107 | 3.0 | 8.0 | 0.00 | 0.00 | 0.00 | 65 | 1017.7 |
| 20260901104533 | 85 | 105 | 3.0 | 8.0 | 0.00 | 0.00 | 0.00 | 65 | 1017.6 |
| 20260901103033 | 84 | 65 | 5.0 | 9.0 | 0.00 | 0.00 | 0.00 | 66 | 1017.6 |
| 20260901101517 | 84 | 65 | 4.0 | 9.0 | 0.00 | 0.00 | 0.00 | 66 | 1017.5 |
| 20260901100026 | 84 | 94 | 6.0 | 11.0 | 0.00 | 0.00 | 0.00 | 65 | 1017.4 |
| 20260901094531 | 84 | 94 | 5.0 | 10.0 | 0.00 | 0.00 | 0.00 | 66 | 1017.3 |
| 20260901093030 | 85 | 88 | 4.0 | 8.0 | 0.00 | 0.00 | 0.00 | 65 | 1017.4 |
| 20260901091512 | 84 | 68 | 4.0 | 10.0 | 0.00 | 0.00 | 0.00 | 69 | 1017.3 |
| 20260901090026 | 83 | 89 | 5.0 | 11.0 | 0.00 | 0.00 | 0.00 | 68 | 1017.2 |
| 20260901084529 | 83 | 119 | 6.0 | 10.0 | 0.00 | 0.00 | 0.00 | 69 | 1017.4 |
| 20260901083032 | 83 | 59 | 3.0 | 8.0 | 0.00 | 0.00 | 0.00 | 67 | 1017.5 |
| 20260901081514 | 83 | 42 | 4.0 | 8.0 | 0.00 | 0.00 | 0.00 | 68 | 1017.2 |
| 20260901080023 | 83 | 79 | 5.0 | 10.0 | 0.00 | 0.00 | 0.00 | 68 | 1017.1 |
| 20260901074523 | 83 | 99 | 6.0 | 11.0 | 0.00 | 0.00 | 0.00 | 68 | 1016.8 |
| 20260901073027 | 82 | 80 | 4.0 | 9.0 | 0.00 | 0.00 | 0.00 | 69 | 1016.9 |
| 20260901071534 | 82 | 99 | 2.0 | 6.0 | 0.00 | 0.00 | 0.00 | 70 | 1016.9 |
| 20260901070025 | 82 | 122 | 2.0 | 7.0 | 0.00 | 0.00 | 0.00 | 70 | 1016.9 |